This is the latest recevied weather packets stored in our database for station/object IK6ZNK-3. If no packets are shown the sender has not sent any weather packets the latest 10 day(s).
| Time | Temp. | Humidity | Pressure | Rain* | Wind** | Luminosity | Snow |
|---|---|---|---|---|---|---|---|
| 1777519807 | 12.78° C | 97% | 1010.3 hPa | 2.79 mm | - | - | - |
| 1777519209 | 12.78° C | 97% | 1009.9 hPa | 1.78 mm | - | - | - |
| 1777518607 | 13.33° C | 97% | 1010.1 hPa | 2.03 mm | - | - | - |
| 1777518009 | 13.33° C | 97% | 1009.9 hPa | 2.03 mm | - | - | - |
| 1777517407 | 13.33° C | 97% | 1009.9 hPa | 2.03 mm | - | - | - |
| 1777516808 | 13.33° C | 97% | 1009.9 hPa | 1.52 mm | - | - | - |
| 1777516207 | 13.89° C | 97% | 1009.6 hPa | 1.52 mm | - | - | - |
| 1777515607 | 13.89° C | 97% | 1009.8 hPa | 1.78 mm | - | - | - |
| 1777515007 | 14.44° C | 96% | 1009.4 hPa | 2.03 mm | - | - | - |
| 1777514408 | 14.44° C | 96% | 1009.4 hPa | 2.03 mm | - | - | - |
| 1777513807 | 14.44° C | 96% | 1009.5 hPa | 2.03 mm | - | - | - |
| 1777513207 | 14.44° C | 96% | 1009.5 hPa | 1.52 mm | - | - | - |
| 1777512608 | 14.44° C | 96% | 1009.5 hPa | 1.78 mm | - | - | - |
| 1777512008 | 14.44° C | 95% | 1009.5 hPa | 1.52 mm | - | - | - |
| 1777511407 | 14.44° C | 95% | 1009.6 hPa | 1.02 mm | - | - | - |
| 1777510807 | 14.44° C | 95% | 1009.3 hPa | 0.51 mm | - | - | - |
| 1777510207 | 14.44° C | 94% | 1009.2 hPa | 0.25 mm | - | - | - |
| 1777509607 | 14.44° C | 94% | 1009 hPa | 0.25 mm | - | - | - |
| 1777509007 | 15° C | 93% | 1009.1 hPa | 0 mm | - | - | - |
| 1777508406 | 15° C | 93% | 1009.1 hPa | 0 mm | - | - | - |
| 1777507807 | 15° C | 93% | 1009.1 hPa | 0 mm | - | - | - |
| 1777507207 | 15° C | 93% | 1009.2 hPa | 0 mm | - | - | - |
| 1777506607 | 15° C | 93% | 1009.1 hPa | 0 mm | - | - | - |
| 1777506007 | 15° C | 93% | 1009.2 hPa | 0 mm | - | - | - |
| 1777505407 | 15° C | 93% | 1009 hPa | 0 mm | - | - | - |
* Rain latest hour (hover to see other rain measurements)
** Current wind speed in m/s (hover to see current wind gust speed)